,,,PA_Meas_PMT16A,,PR_Meas_QMR101_102,,RH_Meas_QMH101,,SR_Meas_QMS101,,TA_Meas_QMH101,,GenWind,,GenWind,
date,time,status,PA,status,PR,status,RH,status,SR,status,TA,status,DirAvg,status,SpdAvg,
2008-10-12, 00:00:04,VALID,1004.69,VALID,0,VALID,86.9921,VALID,0,VALID,24.6964,VALID,356,VALID,0.210938,
2008-10-12, 00:01:04,VALID,1004.69,VALID,0,VALID,87.1218,VALID,0,VALID,24.6769,VALID,357,VALID,0.896094,
2008-10-12, 00:02:04,VALID,1004.69,VALID,0,VALID,87.282,VALID,0.100563,VALID,24.6574,VALID,353,VALID,0.755469,
2008-10-12, 00:03:04,VALID,1004.71,VALID,0,VALID,87.3965,VALID,0,VALID,24.638,VALID,348,VALID,0.705469,
2008-10-12, 00:04:04,VALID,1004.68,VALID,0,VALID,87.5338,VALID,0.100563,VALID,24.6185,VALID,352,VALID,0.747266,
2008-10-12, 00:05:04,VALID,1004.67,VALID,0,VALID,87.6024,VALID,0,VALID,24.5796,VALID,358,VALID,0.619141,
2008-10-12, 00:06:04,VALID,1004.63,VALID,0,VALID,87.8084,VALID,0,VALID,24.5212,VALID,357,VALID,0.627734,
2008-10-12, 00:07:04,VALID,1004.57,VALID,0,VALID,87.9534,VALID,0.100563,VALID,24.5035,VALID,343,VALID,0.569531,
2008-10-12, 00:08:04,VALID,1004.46,VALID,0,VALID,88.0983,VALID,0,VALID,24.4628,VALID,350,VALID,0.787109,
2008-10-12, 00:09:04,VALID,1004.4,VALID,0,VALID,88.289,VALID,0,VALID,24.4025,VALID,352,VALID,0.483984,
2008-10-12, 00:10:04,VALID,1004.35,VALID,0,VALID,88.5789,VALID,0,VALID,24.4043,VALID,338,VALID,0.727344,
2008-10-12, 00:11:04,VALID,1004.31,VALID,0,VALID,88.8307,VALID,0,VALID,24.3654,VALID,349,VALID,0.856641,
2008-10-12, 00:12:04,VALID,1004.27,VALID,0,VALID,89.0443,VALID,0,VALID,24.3265,VALID,352,VALID,0.942578,
2008-10-12, 00:13:04,VALID,1004.25,VALID,0,VALID,89.2655,VALID,0,VALID,24.2468,VALID,353,VALID,0.736719,
2008-10-12, 00:14:04,VALID,1004.27,VALID,0,VALID,89.4105,VALID,0,VALID,24.2486,VALID,350,VALID,0.710156,
2008-10-12, 00:15:04,VALID,1004.24,VALID,0,VALID,89.4944,VALID,0.100563,VALID,24.2273,VALID,343,VALID,0.885938,
2008-10-12, 00:16:04,VALID,1004.23,VALID,0,VALID,89.5554,VALID,0.100563,VALID,24.2486,VALID,358,VALID,0.830469,
2008-10-12, 00:17:04,VALID,1004.23,VALID,0,VALID,89.647,VALID,0,VALID,24.2486,VALID,6,VALID,0.460547,
2008-10-12, 00:18:04,VALID,1004.24,VALID,0,VALID,89.7538,VALID,0.100563,VALID,24.2681,VALID,335,VALID,0.604688,
2008-10-12, 00:19:04,VALID,1004.31,VALID,0,VALID,89.6927,VALID,0.100563,VALID,24.3246,VALID,353,VALID,0.625391,
2008-10-12, 00:20:04,VALID,1004.31,VALID,0,VALID,89.5631,VALID,0.100563,VALID,24.3849,VALID,352,VALID,0.151172,
2008-10-12, 00:21:04,VALID,1004.33,VALID,0,VALID,89.3723,VALID,0.100563,VALID,24.383,VALID,22,VALID,0.476953,
2008-10-12, 00:22:04,VALID,1004.34,VALID,0,VALID,89.3876,VALID,0.100563,VALID,24.4043,VALID,22,VALID,0.300781,
2008-10-12, 00:23:04,VALID,1004.3,VALID,0,VALID,89.38,VALID,0,VALID,24.4025,VALID,22,VALID,0.469531,
2008-10-12, 00:24:04,VALID,1004.31,VALID,0,VALID,89.4028,VALID,0,VALID,24.4646,VALID,355,VALID,0.612891,
2008-10-12, 00:25:04,VALID,1004.31,VALID,0,VALID,89.235,VALID,0,VALID,24.5035,VALID,350,VALID,0.267188,
2008-10-12, 00:26:04,VALID,1004.26,VALID,0,VALID,89.1892,VALID,0,VALID,24.5035,VALID,352,VALID,0.717969,
2008-10-12, 00:27:04,VALID,1004.24,VALID,0,VALID,89.2045,VALID,0,VALID,24.5035,VALID,4,VALID,0.649219,
2008-10-12, 00:28:04,VALID,1004.21,VALID,0,VALID,89.113,VALID,0,VALID,24.4841,VALID,345,VALID,0.427344,
2008-10-12, 00:29:04,VALID,1004.21,VALID,0,VALID,89.3113,VALID,0,VALID,24.4646,VALID,345,VALID,0.304297,
2008-10-12, 00:30:04,VALID,1004.19,VALID,0,VALID,89.4868,VALID,0,VALID,24.4665,VALID,345,VALID,0.450391,
2008-10-12, 00:31:04,VALID,1004.21,VALID,0,VALID,89.6622,VALID,0,VALID,24.4646,VALID,344,VALID,0.482031,
2008-10-12, 00:32:04,VALID,1004.19,VALID,0,VALID,89.6851,VALID,0,VALID,24.4841,VALID,343,VALID,0.559766,
2008-10-12, 00:33:04,VALID,1004.21,VALID,0,VALID,89.8072,VALID,0,VALID,24.5814,VALID,339,VALID,0.689062,
2008-10-12, 00:34:04,VALID,1004.2,VALID,0,VALID,89.3113,VALID,0,VALID,24.6788,VALID,342,VALID,0.3125,
2008-10-12, 00:35:04,VALID,1004.24,VALID,0,VALID,88.968,VALID,0,VALID,24.7177,VALID,342,VALID,0.340234,
2008-10-12, 00:36:04,VALID,1004.3,VALID,0,VALID,88.8307,VALID,0,VALID,24.7353,VALID,342,VALID,0.326172,
2008-10-12, 00:37:04,VALID,1004.32,VALID,0,VALID,88.7697,VALID,0,VALID,24.7761,VALID,348,VALID,0.270703,
2008-10-12, 00:38:04,VALID,1004.29,VALID,0,VALID,88.6934,VALID,0,VALID,24.7956,VALID,349,VALID,0.463281,
2008-10-12, 00:39:04,VALID,1004.29,VALID,0,VALID,88.5942,VALID,0,VALID,24.8327,VALID,308,VALID,0.328516,
2008-10-12, 00:40:04,VALID,1004.29,VALID,0,VALID,88.5332,VALID,0,VALID,24.8911,VALID,346,VALID,0.75,
2008-10-12, 00:41:04,VALID,1004.26,VALID,0,VALID,88.2661,VALID,0,VALID,24.9495,VALID,348,VALID,0.6125,
2008-10-12, 00:42:04,VALID,1004.25,VALID,0,VALID,88.0602,VALID,0,VALID,24.969,VALID,344,VALID,0.650391,
2008-10-12, 00:43:04,VALID,1004.19,VALID,0,VALID,87.9686,VALID,0,VALID,25.0079,VALID,344,VALID,0.265234,
2008-10-12, 00:44:04,VALID,1004.17,VALID,0,VALID,87.9076,VALID,0,VALID,25.0274,VALID,344,VALID,0.417188,
2008-10-12, 00:45:04,VALID,1004.15,VALID,0,VALID,87.9,VALID,0,VALID,25.0079,VALID,294,VALID,0.25,
2008-10-12, 00:46:04,VALID,1004.13,VALID,0,VALID,87.9991,VALID,0,VALID,25.0079,VALID,338,VALID,0.609375,
2008-10-12, 00:47:04,VALID,1004.07,VALID,0,VALID,88.2204,VALID,0,VALID,25.0469,VALID,355,VALID,0.875391,
2008-10-12, 00:48:04,VALID,1004.05,VALID,0,VALID,88.1059,VALID,0,VALID,25.0469,VALID,350,VALID,0.596484,
2008-10-12, 00:49:04,VALID,1003.99,VALID,0,VALID,87.9457,VALID,0,VALID,25.045,VALID,15,VALID,0.506641,
2008-10-12, 00:50:04,VALID,1003.98,VALID,0,VALID,88.0983,VALID,0.100563,VALID,25.0079,VALID,1,VALID,0.474609,
2008-10-12, 00:51:04,VALID,1003.95,VALID,0,VALID,88.3195,VALID,0.100563,VALID,24.9282,VALID,1,VALID,0.400391,
2008-10-12, 00:52:04,VALID,1003.89,VALID,0,VALID,88.4798,VALID,0,VALID,24.8911,VALID,360,VALID,0.517578,
2008-10-12, 00:53:04,VALID,1003.86,VALID,0,VALID,88.8612,VALID,0,VALID,24.8327,VALID,347,VALID,0.577734,
2008-10-12, 00:54:04,VALID,1003.82,VALID,0,VALID,88.9833,VALID,0.100563,VALID,24.8132,VALID,342,VALID,0.573047,
2008-10-12, 00:55:04,VALID,1003.8,VALID,0,VALID,89.0672,VALID,0,VALID,24.7743,VALID,344,VALID,0.258594,
2008-10-12, 00:56:04,VALID,1003.81,VALID,0,VALID,89.2884,VALID,0,VALID,24.7548,VALID,344,VALID,0.363281,
2008-10-12, 00:57:04,VALID,1003.77,VALID,0,VALID,89.4791,VALID,0,VALID,24.7353,VALID,344,VALID,0,
2008-10-12, 00:58:04,VALID,1003.75,VALID,0,VALID,89.5631,VALID,0,VALID,24.7159,VALID,343,VALID,0.225,
2008-10-12, 00:59:04,VALID,1003.74,VALID,0,VALID,89.708,VALID,0,VALID,24.675,VALID,342,VALID,0.318359,
2008-10-12, 01:00:04,VALID,1003.74,VALID,0,VALID,89.8682,VALID,0.100563,VALID,24.6964,VALID,342,VALID,0.578906,
2008-10-12, 01:01:04,VALID,1003.72,VALID,0,VALID,89.9064,VALID,0,VALID,24.6964,VALID,347,VALID,0.562109,
2008-10-12, 01:02:04,VALID,1003.69,VALID,0,VALID,89.9292,VALID,0.100563,VALID,24.6964,VALID,348,VALID,0.586719,
2008-10-12, 01:03:04,VALID,1003.69,VALID,0,VALID,90.0971,VALID,0,VALID,24.6769,VALID,345,VALID,0.605078,
2008-10-12, 01:04:04,VALID,1003.66,VALID,0,VALID,90.242,VALID,0.100563,VALID,24.6769,VALID,345,VALID,0.502344,
2008-10-12, 01:05:04,VALID,1003.65,VALID,0,VALID,90.593,VALID,0,VALID,24.7372,VALID,5,VALID,0.731641,
2008-10-12, 01:06:04,VALID,1003.63,VALID,0,VALID,90.6158,VALID,0,VALID,24.8113,VALID,349,VALID,0.438672,
2008-10-12, 01:07:04,VALID,1003.64,VALID,0,VALID,90.6082,VALID,0,VALID,24.9319,VALID,7,VALID,0.954687,
2008-10-12, 01:08:04,VALID,1003.64,VALID,0,VALID,90.3183,VALID,0,VALID,25.0079,VALID,1,VALID,0.731641,
2008-10-12, 01:09:04,VALID,1003.66,VALID,0,VALID,90.0208,VALID,0,VALID,25.0644,VALID,345,VALID,0.7,
2008-10-12, 01:10:04,VALID,1003.67,VALID,0,VALID,89.7385,VALID,0,VALID,25.1442,VALID,351,VALID,0.772266,
2008-10-12, 01:11:04,VALID,1003.65,VALID,0,VALID,89.6393,VALID,0,VALID,25.2221,VALID,49,VALID,0.952734,
2008-10-12, 01:12:04,VALID,1003.67,VALID,0,VALID,89.3113,VALID,0,VALID,25.2786,VALID,13,VALID,0.673047,
2008-10-12, 01:13:04,VALID,1003.63,VALID,0,VALID,89.0672,VALID,0.100563,VALID,25.339,VALID,19,VALID,0.694922,
2008-10-12, 01:14:04,VALID,1003.63,VALID,0,VALID,88.7697,VALID,0.100563,VALID,25.4169,VALID,20,VALID,1.58398,
2008-10-12, 01:15:04,VALID,1003.64,VALID,0,VALID,88.2738,VALID,0,VALID,25.5123,VALID,20,VALID,1.73086,
2008-10-12, 01:16:04,VALID,1003.64,VALID,0,VALID,87.8542,VALID,0,VALID,25.6116,VALID,360,VALID,1.23672,
2008-10-12, 01:17:04,VALID,1003.68,VALID,0,VALID,87.6329,VALID,0.100563,VALID,25.672,VALID,24,VALID,1.37773,
2008-10-12, 01:18:04,VALID,1003.72,VALID,0,VALID,87.4651,VALID,0,VALID,25.6915,VALID,32,VALID,1.30742,
2008-10-12, 01:19:04,VALID,1003.72,VALID,0,VALID,87.4041,VALID,0,VALID,25.709,VALID,14,VALID,1.4043,
2008-10-12, 01:20:04,VALID,1003.71,VALID,0,VALID,87.2134,VALID,0,VALID,25.748,VALID,30,VALID,1.52813,
2008-10-12, 01:21:04,VALID,1003.72,VALID,0,VALID,87.2286,VALID,0,VALID,25.7869,VALID,38,VALID,1.46289,
2008-10-12, 01:22:04,VALID,1003.72,VALID,0,VALID,86.9616,VALID,0,VALID,25.8648,VALID,19,VALID,2.08203,
2008-10-12, 01:23:04,VALID,1003.75,VALID,0,VALID,86.6259,VALID,0,VALID,25.9232,VALID,23,VALID,1.30977,
2008-10-12, 01:24:04,VALID,1003.73,VALID,0,VALID,86.5115,VALID,0,VALID,25.9447,VALID,18,VALID,1.45352,
2008-10-12, 01:25:04,VALID,1003.73,VALID,0,VALID,86.3971,VALID,0,VALID,25.9856,VALID,10,VALID,1.15391,
2008-10-12, 01:26:04,VALID,1003.76,VALID,0,VALID,86.3208,VALID,0,VALID,25.9836,VALID,12,VALID,0.802344,
2008-10-12, 01:27:04,VALID,1003.71,VALID,0,VALID,86.3666,VALID,0,VALID,25.9661,VALID,2,VALID,1.03555,
2008-10-12, 01:28:04,VALID,1003.69,VALID,0,VALID,86.4581,VALID,0,VALID,25.9447,VALID,18,VALID,1.35859,
2008-10-12, 01:29:04,VALID,1003.63,VALID,0,VALID,86.3208,VALID,0,VALID,25.9252,VALID,21,VALID,1.16992,
2008-10-12, 01:30:04,VALID,1003.6,VALID,0,VALID,86.5039,VALID,0,VALID,25.9038,VALID,6,VALID,1.19219,
2008-10-12, 01:31:04,VALID,1003.56,VALID,0,VALID,86.5725,VALID,0,VALID,25.9272,VALID,356,VALID,1.03984,
2008-10-12, 01:32:04,VALID,1003.52,VALID,0,VALID,86.687,VALID,0,VALID,25.8863,VALID,21,VALID,1.71484,
2008-10-12, 01:33:04,VALID,1003.45,VALID,0,VALID,86.7861,VALID,0,VALID,25.8863,VALID,45,VALID,1.45352,
2008-10-12, 01:34:04,VALID,1003.42,VALID,0,VALID,86.7022,VALID,0,VALID,25.9467,VALID,26,VALID,1.0332,
2008-10-12, 01:35:04,VALID,1003.41,VALID,0,VALID,86.4657,VALID,0,VALID,25.9856,VALID,27,VALID,1.00781,
2008-10-12, 01:36:04,VALID,1003.36,VALID,0,VALID,86.3055,VALID,0,VALID,25.9836,VALID,10,VALID,1.46641,
2008-10-12, 01:37:04,VALID,1003.35,VALID,0,VALID,86.2826,VALID,0,VALID,25.9836,VALID,29,VALID,0.709766,
2008-10-12, 01:38:04,VALID,1003.32,VALID,0,VALID,86.3284,VALID,0,VALID,25.9642,VALID,343,VALID,0.624219,
2008-10-12, 01:39:04,VALID,1003.3,VALID,0,VALID,86.3589,VALID,0,VALID,25.9642,VALID,352,VALID,0.914844,
2008-10-12, 01:40:04,VALID,1003.26,VALID,0,VALID,86.4505,VALID,0,VALID,25.9252,VALID,28,VALID,1.36172,
2008-10-12, 01:41:04,VALID,1003.23,VALID,0,VALID,86.5039,VALID,0,VALID,25.9057,VALID,357,VALID,0.960156,
2008-10-12, 01:42:04,VALID,1003.13,VALID,0,VALID,86.5954,VALID,0,VALID,25.9057,VALID,4,VALID,1.12266,
2008-10-12, 01:43:04,VALID,1003.06,VALID,0,VALID,86.5496,VALID,0,VALID,25.8863,VALID,10,VALID,1.75664,
2008-10-12, 01:44:04,VALID,1003,VALID,0,VALID,86.3742,VALID,0,VALID,25.9057,VALID,1,VALID,1.4332,
2008-10-12, 01:45:04,VALID,1002.93,VALID,0,VALID,86.3818,VALID,0,VALID,25.9252,VALID,16,VALID,1.12891,
2008-10-12, 01:46:04,VALID,1002.84,VALID,0,VALID,86.5115,VALID,0,VALID,25.8843,VALID,10,VALID,0.635547,
2008-10-12, 01:47:04,VALID,1002.84,VALID,0,VALID,86.6488,VALID,0,VALID,25.8453,VALID,351,VALID,0.982422,
2008-10-12, 01:48:04,VALID,1002.81,VALID,0,VALID,86.7785,VALID,0,VALID,25.8278,VALID,13,VALID,0.406641,
2008-10-12, 01:49:04,VALID,1002.88,VALID,0,VALID,86.8929,VALID,0,VALID,25.7869,VALID,28,VALID,1.47305,
2008-10-12, 01:50:04,VALID,1002.91,VALID,0,VALID,86.7861,VALID,0,VALID,25.8668,VALID,19,VALID,2.23359,
2008-10-12, 01:51:04,VALID,1002.96,VALID,0,VALID,86.3894,VALID,0,VALID,25.9252,VALID,32,VALID,2.20039,
2008-10-12, 01:52:04,VALID,1002.97,VALID,0,VALID,86.3742,VALID,0,VALID,25.9467,VALID,39,VALID,1.0332,
2008-10-12, 01:53:04,VALID,1002.97,VALID,0,VALID,86.2674,VALID,0,VALID,25.9232,VALID,19,VALID,1.47734,
2008-10-12, 01:54:04,VALID,1002.97,VALID,0,VALID,85.8859,VALID,0.100563,VALID,26.0206,VALID,342,VALID,1.14023,
2008-10-12, 01:55:04,VALID,1002.92,VALID,0,VALID,85.5884,VALID,0.100563,VALID,26.0985,VALID,33,VALID,1.54609,
2008-10-12, 01:56:04,VALID,1002.87,VALID,0,VALID,85.474,VALID,0,VALID,26.0985,VALID,34,VALID,2.30586,
2008-10-12, 01:57:04,VALID,1002.85,VALID,0,VALID,85.4282,VALID,0,VALID,26.0985,VALID,20,VALID,1.82773,
2008-10-12, 01:58:04,VALID,1002.8,VALID,0,VALID,85.741,VALID,0.100563,VALID,26.0401,VALID,12,VALID,1.6168,
2008-10-12, 01:59:04,VALID,1002.79,VALID,0,VALID,85.8707,VALID,0.100563,VALID,25.9797,VALID,16,VALID,1.83242,
2008-10-12, 02:00:04,VALID,1002.78,VALID,0,VALID,85.5121,VALID,0.100563,VALID,26.0771,VALID,9,VALID,2.76133,
2008-10-12, 02:01:04,VALID,1002.84,VALID,0,VALID,85.3824,VALID,0,VALID,26.1784,VALID,18,VALID,1.95547,
2008-10-12, 02:02:04,VALID,1002.83,VALID,0,VALID,85.1993,VALID,0.100563,VALID,26.1959,VALID,23,VALID,2.46328,
2008-10-12, 02:03:04,VALID,1002.9,VALID,0,VALID,85.1078,VALID,0.100563,VALID,26.2154,VALID,67,VALID,1.37656,
2008-10-12, 02:04:04,VALID,1002.94,VALID,0,VALID,85.1688,VALID,0.100563,VALID,26.2154,VALID,25,VALID,1.15977,
2008-10-12, 02:05:04,VALID,1002.93,VALID,0,VALID,85.1993,VALID,0.100563,VALID,26.1959,VALID,11,VALID,1.56875,
2008-10-12, 02:06:04,VALID,1002.93,VALID,0,VALID,85.0544,VALID,0,VALID,26.2154,VALID,18,VALID,2.20859,
2008-10-12, 02:07:04,VALID,1002.91,VALID,0,VALID,85.0086,VALID,0,VALID,26.2544,VALID,19,VALID,1.82266,
2008-10-12, 02:08:04,VALID,1002.86,VALID,0,VALID,85.0849,VALID,0,VALID,26.2154,VALID,32,VALID,1.77109,
2008-10-12, 02:09:04,VALID,1002.82,VALID,0,VALID,85.268,VALID,0,VALID,26.157,VALID,20,VALID,1.70547,
2008-10-12, 02:10:04,VALID,1002.8,VALID,0,VALID,85.4587,VALID,0,VALID,26.1375,VALID,24,VALID,1.20078,
2008-10-12, 02:11:04,VALID,1002.78,VALID,0,VALID,85.3138,VALID,0.100563,VALID,26.155,VALID,38,VALID,1.95859,
2008-10-12, 02:12:04,VALID,1002.82,VALID,0,VALID,85.329,VALID,0,VALID,26.1959,VALID,17,VALID,0.960156,
2008-10-12, 02:13:04,VALID,1002.85,VALID,0,VALID,85.1765,VALID,0,VALID,26.2174,VALID,19,VALID,1.54531,
2008-10-12, 02:14:04,VALID,1002.91,VALID,0,VALID,85.2375,VALID,0,VALID,26.1784,VALID,13,VALID,1.39063,
2008-10-12, 02:15:04,VALID,1002.97,VALID,0,VALID,85.5121,VALID,0.100563,VALID,26.159,VALID,33,VALID,1.26328,
2008-10-12, 02:16:04,VALID,1003.01,VALID,0,VALID,85.5579,VALID,0,VALID,26.12,VALID,18,VALID,1.11836,
2008-10-12, 02:17:04,VALID,1003.04,VALID,0,VALID,85.7181,VALID,0,VALID,26.0596,VALID,22,VALID,1.48945,
2008-10-12, 02:18:04,VALID,1003.03,VALID,0,VALID,85.802,VALID,0.100563,VALID,26.0596,VALID,45,VALID,0.696484,
2008-10-12, 02:19:04,VALID,1003.03,VALID,0,VALID,85.7715,VALID,0,VALID,26.1005,VALID,3,VALID,0.915625,
2008-10-12, 02:20:04,VALID,1003.07,VALID,0,VALID,85.802,VALID,0,VALID,26.0596,VALID,37,VALID,0.777734,
2008-10-12, 02:21:04,VALID,1003.04,VALID,0,VALID,85.8096,VALID,0,VALID,26.0791,VALID,352,VALID,2.06211,
2008-10-12, 02:22:04,VALID,1002.99,VALID,0,VALID,85.474,VALID,0,VALID,26.1375,VALID,1,VALID,0.802734,
2008-10-12, 02:23:04,VALID,1003,VALID,0,VALID,85.5884,VALID,0,VALID,26.118,VALID,15,VALID,0.907812,
2008-10-12, 02:24:04,VALID,1002.98,VALID,0,VALID,85.7105,VALID,0,VALID,26.0985,VALID,23,VALID,0.957031,
2008-10-12, 02:25:04,VALID,1002.95,VALID,0,VALID,85.68,VALID,0,VALID,26.118,VALID,24,VALID,1.9832,
2008-10-12, 02:26:04,VALID,1002.95,VALID,0,VALID,85.5426,VALID,0.100563,VALID,26.1765,VALID,17,VALID,1.61445,
2008-10-12, 02:27:04,VALID,1002.93,VALID,0,VALID,85.535,VALID,0,VALID,26.1375,VALID,40,VALID,0.986328,
2008-10-12, 02:28:04,VALID,1002.94,VALID,0,VALID,85.741,VALID,0,VALID,26.0985,VALID,29,VALID,2.26211,
2008-10-12, 02:29:04,VALID,1002.97,VALID,0,VALID,85.8936,VALID,0,VALID,26.0985,VALID,20,VALID,1.23516,
2008-10-12, 02:30:04,VALID,1002.96,VALID,0,VALID,85.9546,VALID,0,VALID,26.1005,VALID,18,VALID,1.14805,
2008-10-12, 02:31:04,VALID,1002.98,VALID,0,VALID,85.8173,VALID,0,VALID,26.0985,VALID,16,VALID,1.59844,
2008-10-12, 02:32:04,VALID,1002.99,VALID,0,VALID,85.8936,VALID,0,VALID,26.0985,VALID,18,VALID,1.54492,
2008-10-12, 02:33:04,VALID,1002.99,VALID,0,VALID,85.8325,VALID,0.100563,VALID,26.1375,VALID,6,VALID,1.05273,
2008-10-12, 02:34:04,VALID,1003.02,VALID,0,VALID,85.9241,VALID,0,VALID,26.1375,VALID,45,VALID,0.54375,
2008-10-12, 02:35:04,VALID,1002.99,VALID,0,VALID,85.9393,VALID,0,VALID,26.0791,VALID,344,VALID,1.55742,
2008-10-12, 02:36:04,VALID,1002.92,VALID,0,VALID,85.9393,VALID,0,VALID,26.0985,VALID,26,VALID,2.44375,
2008-10-12, 02:37:04,VALID,1002.9,VALID,0,VALID,85.802,VALID,0,VALID,26.1375,VALID,352,VALID,0.874219,
2008-10-12, 02:38:04,VALID,1002.83,VALID,0,VALID,85.9088,VALID,0,VALID,26.0985,VALID,24,VALID,1.46602,
2008-10-12, 02:39:05,VALID,1002.76,VALID,0,VALID,85.9012,VALID,0.100563,VALID,26.118,VALID,9,VALID,1.77734,
2008-10-12, 02:40:05,VALID,1002.7,VALID,0,VALID,85.802,VALID,0,VALID,26.159,VALID,5,VALID,1.34375,
2008-10-12, 02:41:05,VALID,1002.72,VALID,0,VALID,85.8707,VALID,0,VALID,26.118,VALID,34,VALID,1.6418,
2008-10-12, 02:42:05,VALID,1002.71,VALID,0,VALID,85.9699,VALID,0,VALID,26.1005,VALID,13,VALID,2.05898,
2008-10-12, 02:43:05,VALID,1002.68,VALID,0,VALID,86.1529,VALID,0,VALID,26.0596,VALID,9,VALID,1.55,
2008-10-12, 02:44:05,VALID,1002.69,VALID,0,VALID,86.2598,VALID,0,VALID,26.0401,VALID,360,VALID,2.26328,
2008-10-12, 02:45:05,VALID,1002.7,VALID,0,VALID,86.2216,VALID,0,VALID,26.0401,VALID,21,VALID,1.25195,
2008-10-12, 02:46:05,VALID,1002.71,VALID,0,VALID,86.1529,VALID,0,VALID,26.0791,VALID,3,VALID,1.29883,
2008-10-12, 02:47:05,VALID,1002.63,VALID,0,VALID,86.1682,VALID,0,VALID,26.081,VALID,8,VALID,0.944141,
2008-10-12, 02:48:05,VALID,1002.62,VALID,0,VALID,86.275,VALID,0,VALID,26.0791,VALID,7,VALID,1.44961,
2008-10-12, 02:49:05,VALID,1002.63,VALID,0,VALID,85.8783,VALID,0,VALID,26.1979,VALID,22,VALID,1.35859,
2008-10-12, 02:50:05,VALID,1002.58,VALID,0,VALID,85.6113,VALID,0,VALID,26.2154,VALID,35,VALID,1.37422,
2008-10-12, 02:51:05,VALID,1002.59,VALID,0,VALID,85.6342,VALID,0,VALID,26.2154,VALID,3,VALID,1.27695,
2008-10-12, 02:52:05,VALID,1002.62,VALID,0,VALID,85.6266,VALID,0,VALID,26.2154,VALID,47,VALID,1.03164,
2008-10-12, 02:53:05,VALID,1002.6,VALID,0,VALID,85.4511,VALID,0,VALID,26.2154,VALID,355,VALID,1.70469,
2008-10-12, 02:54:05,VALID,1002.62,VALID,0,VALID,85.3901,VALID,0.100563,VALID,26.2544,VALID,24,VALID,1.60469,
2008-10-12, 02:55:05,VALID,1002.61,VALID,0,VALID,85.4969,VALID,0,VALID,26.2349,VALID,357,VALID,1.01719,
2008-10-12, 02:56:05,VALID,1002.63,VALID,0,VALID,85.5503,VALID,0.100563,VALID,26.2154,VALID,24,VALID,0.773047,
2008-10-12, 02:57:05,VALID,1002.6,VALID,0,VALID,85.6113,VALID,0,VALID,26.1765,VALID,25,VALID,1.7457,
2008-10-12, 02:58:05,VALID,1002.63,VALID,0,VALID,85.5884,VALID,0,VALID,26.1765,VALID,37,VALID,1.93398,
2008-10-12, 02:59:05,VALID,1002.6,VALID,0,VALID,85.5274,VALID,0,VALID,26.155,VALID,30,VALID,1.46133,
2008-10-12, 03:00:05,VALID,1002.65,VALID,0,VALID,85.5579,VALID,0,VALID,26.1959,VALID,357,VALID,0.824609,
2008-10-12, 03:01:05,VALID,1002.63,VALID,0,VALID,85.5045,VALID,0,VALID,26.1979,VALID,346,VALID,0.6625,
2008-10-12, 03:02:05,VALID,1002.68,VALID,0,VALID,85.7791,VALID,0,VALID,26.157,VALID,18,VALID,1.23828,
2008-10-12, 03:03:05,VALID,1002.62,VALID,0,VALID,85.802,VALID,0,VALID,26.1375,VALID,360,VALID,1.30273,
2008-10-12, 03:04:05,VALID,1002.63,VALID,0,VALID,85.7486,VALID,0,VALID,26.159,VALID,356,VALID,1.2793,
2008-10-12, 03:05:05,VALID,1002.64,VALID,0,VALID,85.8554,VALID,0,VALID,26.116,VALID,6,VALID,0.695313,
2008-10-12, 03:06:05,VALID,1002.63,VALID,0,VALID,86.0004,VALID,0,VALID,26.0985,VALID,360,VALID,0.650391,
2008-10-12, 03:07:05,VALID,1002.68,VALID,0,VALID,86.2292,VALID,0,VALID,26.0596,VALID,12,VALID,0.671875,
2008-10-12, 03:08:05,VALID,1002.66,VALID,0,VALID,86.4352,VALID,0,VALID,26.0206,VALID,33,VALID,1.39922,
2008-10-12, 03:09:05,VALID,1002.66,VALID,0,VALID,86.5344,VALID,0,VALID,25.9817,VALID,23,VALID,0.728125,
2008-10-12, 03:10:05,VALID,1002.69,VALID,0,VALID,86.7175,VALID,0,VALID,25.9622,VALID,21,VALID,0.645312,
2008-10-12, 03:11:05,VALID,1002.67,VALID,0,VALID,86.7861,VALID,0,VALID,25.9836,VALID,3,VALID,1.13516,
2008-10-12, 03:12:05,VALID,1002.73,VALID,0,VALID,86.8014,VALID,0,VALID,25.9817,VALID,14,VALID,1.07109,
2008-10-12, 03:13:05,VALID,1002.74,VALID,0,VALID,86.7709,VALID,0,VALID,25.9817,VALID,358,VALID,0.890625,
2008-10-12, 03:14:05,VALID,1002.72,VALID,0,VALID,86.7099,VALID,0,VALID,26.0031,VALID,346,VALID,0.944531,
2008-10-12, 03:15:05,VALID,1002.73,VALID,0,VALID,86.5954,VALID,0,VALID,26.0206,VALID,12,VALID,0.684375,
2008-10-12, 03:16:05,VALID,1002.7,VALID,0,VALID,86.6336,VALID,0,VALID,26.0421,VALID,20,VALID,1.61211,
2008-10-12, 03:17:05,VALID,1002.75,VALID,0,VALID,86.4962,VALID,0,VALID,26.12,VALID,29,VALID,1.0582,
2008-10-12, 03:18:05,VALID,1002.75,VALID,0,VALID,86.2064,VALID,0,VALID,26.118,VALID,2,VALID,0.787891,
2008-10-12, 03:19:05,VALID,1002.75,VALID,0,VALID,86.3132,VALID,0,VALID,26.0985,VALID,25,VALID,0.725,
2008-10-12, 03:20:05,VALID,1002.74,VALID,0,VALID,86.3513,VALID,0,VALID,26.0791,VALID,15,VALID,0.886719,
2008-10-12, 03:21:05,VALID,1002.75,VALID,0,VALID,86.4581,VALID,0,VALID,26.0596,VALID,12,VALID,0.592969,
2008-10-12, 03:22:05,VALID,1002.76,VALID,0,VALID,86.7099,VALID,0,VALID,26.0226,VALID,13,VALID,0.632031,
2008-10-12, 03:23:05,VALID,1002.75,VALID,0,VALID,86.8777,VALID,0,VALID,26.0031,VALID,13,VALID,0.748047,
2008-10-12, 03:24:05,VALID,1002.77,VALID,0,VALID,87.0379,VALID,0,VALID,25.9232,VALID,13,VALID,0.7375,
2008-10-12, 03:25:05,VALID,1002.76,VALID,0,VALID,87.2973,VALID,0.100563,VALID,25.8843,VALID,360,VALID,0.930469,
2008-10-12, 03:26:05,VALID,1002.79,VALID,0,VALID,87.427,VALID,0,VALID,25.9252,VALID,12,VALID,1.0625,
2008-10-12, 03:27:05,VALID,1002.83,VALID,0,VALID,87.3125,VALID,0,VALID,25.9232,VALID,29,VALID,0.541406,
2008-10-12, 03:28:05,VALID,1002.84,VALID,0,VALID,87.3583,VALID,0,VALID,25.9038,VALID,20,VALID,0.861719,
2008-10-12, 03:29:05,VALID,1002.87,VALID,0,VALID,87.3965,VALID,0,VALID,25.8843,VALID,26,VALID,0.660156,
2008-10-12, 03:30:05,VALID,1002.86,VALID,0,VALID,87.3736,VALID,0,VALID,25.9038,VALID,10,VALID,0.599609,
2008-10-12, 03:31:05,VALID,1002.87,VALID,0,VALID,87.3202,VALID,0,VALID,25.9427,VALID,30,VALID,1.19102,
2008-10-12, 03:32:05,VALID,1002.89,VALID,0,VALID,87.1218,VALID,0,VALID,26.0012,VALID,38,VALID,1.01484,
2008-10-12, 03:33:05,VALID,1002.91,VALID,0,VALID,86.9311,VALID,0,VALID,26.0616,VALID,28,VALID,1.27461,
2008-10-12, 03:34:05,VALID,1002.94,VALID,0,VALID,86.7099,VALID,0,VALID,26.0985,VALID,25,VALID,1.58203,
2008-10-12, 03:35:05,VALID,1002.97,VALID,0,VALID,86.542,VALID,0,VALID,26.1395,VALID,36,VALID,0.685547,
2008-10-12, 03:36:05,VALID,1002.97,VALID,0,VALID,86.4962,VALID,0,VALID,26.157,VALID,38,VALID,1.59492,
2008-10-12, 03:37:05,VALID,1002.99,VALID,0,VALID,86.1377,VALID,0,VALID,26.2349,VALID,19,VALID,1.33164,
2008-10-12, 03:38:05,VALID,1003.03,VALID,0,VALID,86.0233,VALID,0,VALID,26.2544,VALID,5,VALID,0.529688,
2008-10-12, 03:39:05,VALID,1003.04,VALID,0,VALID,85.9851,VALID,0,VALID,26.2544,VALID,16,VALID,0.394141,
2008-10-12, 03:40:05,VALID,1003.04,VALID,0,VALID,86.0385,VALID,0,VALID,26.2349,VALID,24,VALID,1.09063,
2008-10-12, 03:41:05,VALID,1003.07,VALID,0,VALID,86.1148,VALID,0,VALID,26.2349,VALID,29,VALID,0.794922,
2008-10-12, 03:42:05,VALID,1003.1,VALID,0,VALID,86.2292,VALID,0,VALID,26.1959,VALID,30,VALID,0.778516,
2008-10-12, 03:43:05,VALID,1003.13,VALID,0,VALID,86.2216,VALID,0,VALID,26.1959,VALID,35,VALID,1.06484,
2008-10-12, 03:44:05,VALID,1003.15,VALID,0,VALID,86.2826,VALID,0,VALID,26.1959,VALID,31,VALID,0.872656,